Location: Gebenbach
(49.5378°N, 11.8735°E)
Time: 11:55:33
(UTC+00:00)

Helios 1A Rocket - Pass Details

Date: 29 October 2020
Orbit: 562 x 587 km, 98.3° (Epoch: 25 November)

Event Time Altitude Azimuth Distance (km) Brightness Sun altitude
Rises 17:13:24 0° 156° (SSE) 2,794 6.2 -13.2°
Reaches altitude 10° 17:15:34 10° 153° (SSE) 1,896 5.3 -13.5°
Maximum altitude 17:19:37 64° 72° (ENE) 644 2.9 -14.2°
Drops below altitude 10° 17:23:42 10° 351° (N) 1,897 5.6 -14.9°
Sets 17:25:51 0° 349° (NNW) 2,796 6.5 -15.2°
